Helena, Arkansas, United States (72342)
Lat: 34.53N, Lon: 90.59W
Wx Zone: ARZ058
Local Info
Past Weather Observations for Sunday, October 19, 2014

NOTE: This archive is for the closest National Weather Service station to Helena. Information may differ from the station used for current weather conditions.

Click here for Long-term Archive

Time Weather Temperature Dewpoint Humidity Pressure Winds Precip Visibility
23:55
Clear
46°F / 8°C 46°F / 8°C 100% 30.09 in
(1019 mb)
Calm - 10SM
23:35
Clear
48°F / 9°C 48°F / 9°C 100% 30.09 in
(1019 mb)
Calm - 7SM
23:15
Obscured
Fog And Mist
46°F / 8°C 46°F / 8°C 100% 30.09 in
(1019 mb)
Calm - 1SM
22:55
Obscured
Fog And Mist
48°F / 9°C 46°F / 8°C 94% 30.09 in
(1019 mb)
Calm - 1 3/4SM
22:35
Obscured
Fog And Mist
48°F / 9°C 46°F / 8°C 94% 30.09 in
(1019 mb)
Calm - 1 1/2SM
22:15
Clear
Fog And Mist
50°F / 10°C 46°F / 8°C 88% 30.12 in
(1020 mb)
Calm - 3SM
21:55
Clear
Fog And Mist
48°F / 9°C 46°F / 8°C 94% 30.12 in
(1020 mb)
Calm - 4SM
21:35
Clear
50°F / 10°C 46°F / 8°C 88% 30.12 in
(1020 mb)
Calm - 10SM
21:15
Clear
52°F / 11°C 48°F / 9°C 88% 30.12 in
(1020 mb)
Calm - 10SM
20:55
Clear
50°F / 10°C 46°F / 8°C 88% 30.12 in
(1020 mb)
Calm - 10SM
20:35
Clear
52°F / 11°C 46°F / 8°C 82% 30.12 in
(1020 mb)
Calm - 10SM
20:15
Clear
52°F / 11°C 48°F / 9°C 88% 30.12 in
(1020 mb)
Calm - 7SM
19:55
Clear
52°F / 11°C 48°F / 9°C 88% 30.12 in
(1020 mb)
Calm - 10SM
19:35
Clear
52°F / 11°C 46°F / 8°C 82% 30.12 in
(1020 mb)
Calm - 10SM
19:15
Clear
54°F / 12°C 48°F / 9°C 82% 30.12 in
(1020 mb)
Calm - 10SM
18:55
Clear
54°F / 12°C 48°F / 9°C 82% 30.12 in
(1020 mb)
Calm - 10SM
18:35
Clear
55°F / 13°C 50°F / 10°C 82% 30.12 in
(1020 mb)
Calm - 10SM
18:15
Clear
55°F / 13°C 48°F / 9°C 77% 30.12 in
(1020 mb)
Calm - 10SM
17:55
Clear
57°F / 14°C 50°F / 10°C 77% 30.12 in
(1020 mb)
N 3.5 mph
(N 6 kph)
- 7SM
17:35
Clear
Hazy
59°F / 15°C 50°F / 10°C 72% 30.12 in
(1020 mb)
N 3.5 mph
(N 6 kph)
- 3SM
17:15
Obscured
Hazy
61°F / 16°C 50°F / 10°C 68% 30.12 in
(1020 mb)
N 3.5 mph
(N 6 kph)
- 1 1/2SM
16:55
Clear
Hazy
63°F / 17°C 46°F / 8°C 56% 30.12 in
(1020 mb)
N 4.6 mph
(N 7 kph)
- 5SM
16:35
Clear
64°F / 18°C 46°F / 8°C 52% 30.12 in
(1020 mb)
N 5.8 mph
(N 9 kph)
- 10SM
16:15
Clear
66°F / 19°C 46°F / 8°C 49% 30.12 in
(1020 mb)
NNE 3.5 mph
(NNE 6 kph)
- 10SM
15:55
Clear
66°F / 19°C 45°F / 7°C 46% 30.12 in
(1020 mb)
N 5.8 mph
(N 9 kph)
- 10SM
15:35
Clear
66°F / 19°C 46°F / 8°C 49% 30.12 in
(1020 mb)
N 6.9 mph
(N 11 kph)
- 10SM
15:15
Clear
68°F / 20°C 45°F / 7°C 43% 30.12 in
(1020 mb)
Calm - 10SM
14:55
Clear
68°F / 20°C 45°F / 7°C 43% 30.12 in
(1020 mb)
NNW 4.6 mph
(NNW 7 kph)
- 10SM
14:35
Clear
68°F / 20°C 45°F / 7°C 43% 30.12 in
(1020 mb)
N 5.8 mph
(N 9 kph)
- 10SM
14:15
Clear
66°F / 19°C 45°F / 7°C 46% 30.15 in
(1021 mb)
NNW 6.9 mph
(NNW 11 kph)
- 10SM
13:55
Clear
66°F / 19°C 45°F / 7°C 46% 30.15 in
(1021 mb)
Calm - 7SM
13:35
Clear
68°F / 20°C 46°F / 8°C 46% 30.15 in
(1021 mb)
NNE 6.9 mph
(NNE 11 kph)
- 10SM
13:15
Clear
66°F / 19°C 46°F / 8°C 49% 30.15 in
(1021 mb)
Calm - 10SM
12:55
Clear
64°F / 18°C 45°F / 7°C 49% 30.18 in
(1022 mb)
N 3.5 mph
(N 6 kph)
- 10SM
12:35
Clear
64°F / 18°C 45°F / 7°C 49% 30.18 in
(1022 mb)
NNW 8.1 mph
(NNW 13 kph)
- 10SM
12:15
Clear
64°F / 18°C 45°F / 7°C 49% 30.18 in
(1022 mb)
NE 5.8 mph
(NE 9 kph)
- 10SM
11:55
Clear
64°F / 18°C 45°F / 7°C 49% 30.21 in
(1023 mb)
ENE 8.1 mph
(ENE 13 kph)
- 10SM
11:35
Clear
63°F / 17°C 45°F / 7°C 52% 30.21 in
(1023 mb)
NE 4.6 mph
(NE 7 kph)
- 10SM
11:15
Clear
63°F / 17°C 46°F / 8°C 56% 30.21 in
(1023 mb)
N 8.1 mph
(N 13 kph)
- 10SM
10:55
Clear
63°F / 17°C 46°F / 8°C 56% 30.24 in
(1024 mb)
N 6.9 mph
(N 11 kph)
- 10SM
10:35
Clear
63°F / 17°C 45°F / 7°C 52% 30.24 in
(1024 mb)
NE 6.9 mph
(NE 11 kph)
- 10SM
10:15
Clear
61°F / 16°C 46°F / 8°C 59% 30.24 in
(1024 mb)
NNE 6.9 mph
(NNE 11 kph)
- 10SM
09:55
Clear
61°F / 16°C 45°F / 7°C 55% 30.24 in
(1024 mb)
NE 3.5 mph
(NE 6 kph)
- 10SM
09:35
Clear
59°F / 15°C 45°F / 7°C 59% 30.24 in
(1024 mb)
Calm - 10SM
09:15
Clear
59°F / 15°C 46°F / 8°C 63% 30.24 in
(1024 mb)
Calm - 10SM
08:55
Clear
57°F / 14°C 46°F / 8°C 67% 30.24 in
(1024 mb)
ENE 4.6 mph
(ENE 7 kph)
- 10SM
08:35
Clear
55°F / 13°C 46°F / 8°C 72% 30.24 in
(1024 mb)
NE 3.5 mph
(NE 6 kph)
- 10SM
08:15
Clear
55°F / 13°C 46°F / 8°C 72% 30.24 in
(1024 mb)
E 4.6 mph
(E 7 kph)
- 10SM
07:55
Clear
54°F / 12°C 46°F / 8°C 77% 30.24 in
(1024 mb)
Calm - 10SM
07:35
Clear
52°F / 11°C 46°F / 8°C 82% 30.24 in
(1024 mb)
Calm - 10SM
07:15
Clear
50°F / 10°C 46°F / 8°C 88% 30.24 in
(1024 mb)
Calm - 10SM
06:55
Clear
46°F / 8°C 45°F / 7°C 93% 30.24 in
(1024 mb)
Calm - 10SM
06:35
Clear
46°F / 8°C 45°F / 7°C 93% 30.21 in
(1023 mb)
ENE 3.5 mph
(ENE 6 kph)
- 10SM
06:15
Clear
45°F / 7°C 45°F / 7°C 100% 30.21 in
(1023 mb)
ENE 5.8 mph
(ENE 9 kph)
- 10SM
05:55
Clear
45°F / 7°C 45°F / 7°C 100% 30.21 in
(1023 mb)
Calm - 10SM
05:35
Clear
45°F / 7°C 43°F / 6°C 93% 30.21 in
(1023 mb)
NE 3.5 mph
(NE 6 kph)
- 10SM
05:15
Clear
45°F / 7°C 43°F / 6°C 93% 30.21 in
(1023 mb)
NE 4.6 mph
(NE 7 kph)
- 10SM
04:55
Clear
45°F / 7°C 43°F / 6°C 93% 30.21 in
(1023 mb)
NE 4.6 mph
(NE 7 kph)
- 10SM
04:35
Clear
45°F / 7°C 43°F / 6°C 93% 30.21 in
(1023 mb)
NE 3.5 mph
(NE 6 kph)
- 10SM
04:15
Clear
46°F / 8°C 43°F / 6°C 87% 30.21 in
(1023 mb)
NE 3.5 mph
(NE 6 kph)
- 10SM
03:55
Clear
Fog And Mist
46°F / 8°C 45°F / 7°C 93% 30.21 in
(1023 mb)
Calm - 5SM
03:35
Clear
46°F / 8°C 45°F / 7°C 93% 30.18 in
(1022 mb)
Calm - 10SM
03:15
Clear
48°F / 9°C 45°F / 7°C 87% 30.18 in
(1022 mb)
Calm - 10SM
02:55
Clear
48°F / 9°C 45°F / 7°C 87% 30.18 in
(1022 mb)
Calm - 10SM
02:35
Clear
48°F / 9°C 45°F / 7°C 87% 30.18 in
(1022 mb)
Calm - 10SM
02:15
Clear
48°F / 9°C 45°F / 7°C 87% 30.18 in
(1022 mb)
Calm - 10SM
01:55
Clear
50°F / 10°C 45°F / 7°C 82% 30.18 in
(1022 mb)
Calm - 10SM
01:35
Clear
50°F / 10°C 46°F / 8°C 88% 30.18 in
(1022 mb)
Calm - 10SM
01:15
Clear
50°F / 10°C 46°F / 8°C 88% 30.18 in
(1022 mb)
NE 3.5 mph
(NE 6 kph)
- 10SM
00:55
Clear
48°F / 9°C 46°F / 8°C 94% 30.18 in
(1022 mb)
NE 4.6 mph
(NE 7 kph)
- 10SM
00:35
Clear
50°F / 10°C 46°F / 8°C 88% 30.18 in
(1022 mb)
NE 6.9 mph
(NE 11 kph)
- 10SM
00:15
Clear
50°F / 10°C 46°F / 8°C 88% 30.18 in
(1022 mb)
NE 3.5 mph
(NE 6 kph)
- 10SM
Time Weather Temperature Dewpoint Humidity Pressure Winds Precip Visibility


Weather for websites

WeatherForYou.com, LLC is not responsible for any damages or problems caused by this service. Current weather conditions are obtained from the closest station including government and personal stations which may have varying degrees of accuracy. Weather forecasts are derived from the NOAA NDFD. Like all things, this site belongs to Jesus Christ... He just trusts me to maintain it. If you have any questions or comments email webmaster@weatherforyou.com

Copyright © 2014, WeatherForYou.com LLC. All rights reserved.